{"data":{"norad_id":51981,"intl_designator":"2022-025AB","name":"STARLINK-3635","alt_names":[],"object_type":"PAYLOAD","status":"ACTIVE","operator":null,"country":"US","launch_date":"2022-03-09","launch_site_code":"AFETR","launch_vehicle":null,"mission":null,"orbit_class":"UNKNOWN","rcs_meters":null,"size_class":null,"mass_kg":null,"dimensions":null,"purposes":["comms"],"wikipedia_slug":null,"has_3d_model":false,"image_url":null,"decayed_at":null,"tle_current":{"epoch":"2026-09-19T13:50:37.444128Z","epoch_age_seconds":135163,"freshness":"FRESH","line1":"1 51981U 22025AB  26262.57682227 -.00000330  00000+0  14471-5 0  9990","line2":"2 51981  53.1605 239.7723 0001383  87.8018 272.3144 15.35388561250449","mean_motion":15.35388561,"eccentricity":0.0001383,"inclination_deg":53.1605,"raan_deg":239.7723,"arg_perigee_deg":87.8018,"mean_anomaly_deg":272.3144,"bstar":1.4471e-6,"rev_number":25044,"period_min":93.787334136587,"perigee_km":458.8209231042,"apogee_km":460.71228724139,"semimajor_km":6837.9036051728,"source":"CELESTRAK","updated_at":"2026-09-20T09:00:39.979323Z"}}}